Weather History for Eureka, NV

Change the Weather History Date:

Tuesday, November 19, 2013

  Actual Average Record
Temperature  
Mean Temperature 42 °F 33 °F  
Max Temperature 53 °F 48 °F 68 °F (2007)
Min Temperature 30 °F 19 °F -4 °F (1985)
Degree Days  
Heating Degree Days 23 32  
Month to date heating degree days 458 536  
Since 1 July heating degree days 1267 1383  
Cooling Degree Days 0 0  
Month to date cooling degree days 0 0  
Year to date cooling degree days 585 288  
Moisture  
Dew Point 28 °F    
Average Humidity 60    
Maximum Humidity 78    
Minimum Humidity 42    
Precipitation  
Precipitation 0.00 in 0.02 in 0.35 in (1982)
Month to date precipitation 0.05 0.53  
Year to date precipitation 6.88 8.14  
Sea Level Pressure  
Sea Level Pressure 29.90 in    
Wind  
Wind Speed 6 mph (SW)    
Max Wind Speed 15 mph    
Max Gust Speed 20 mph    
T = Trace of Precipitation, MM = Missing Value Source: NWS Daily Summary

Daily Weather History Graph

Daily Weather History Graph

Search for Another Location

Airport:

Trip Planner

Search our weather history database for the weather conditions in past years. The results will help you decide how hot, cold, wet, or windy it might be!

Date:

Astronomy

Nov. 19, 2013 Rise Set
Actual Time 6:33 AM PST 4:25 PM PST
Civil Twilight 6:04 AM PST 4:54 PM PST
Nautical Twilight 5:31 AM PST 5:27 PM PST
Astronomical Twilight 4:59 AM PST 5:59 PM PST
Moon 6:20 PM PST (11/19) 8:15 AM PST (11/19)
Length of Visible Light 10h 50m
Length of Day
9h 52m
Waning Gibbous, 95% of the Moon is Illuminated
Nov 19
Waning Gibbous
Nov 25
Last Quarter
Dec 2
New
Dec 9
First Quarter
Dec 17
Full

Hourly Weather History & Observations

Time (PST) Temp. Windchill Dew Point Humidity Pressure Visibility Wind Dir Wind Speed Gust Speed Precip Events Conditions
12:53 AM 36.0 °F 30.3 °F 26.1 °F 67% 29.88 in - South 6.9 mph - N/A   Unknown
1:53 AM 37.9 °F 34.4 °F 27.0 °F 65% 29.86 in - South 4.6 mph - N/A   Unknown
2:53 AM 36.0 °F - 26.1 °F 67% 29.87 in - Calm Calm - N/A   Unknown
3:53 AM 37.0 °F 34.5 °F 27.0 °F 67% 29.88 in - SSE 3.5 mph - N/A   Unknown
4:53 AM 37.0 °F 34.5 °F 27.0 °F 67% 29.88 in - West 3.5 mph - N/A   Unknown
5:53 AM 37.9 °F 32.7 °F 28.0 °F 68% 29.88 in - South 6.9 mph - N/A   Unknown
6:53 AM 37.9 °F 31.5 °F 28.0 °F 68% 29.90 in - South 9.2 mph - N/A   Unknown
7:53 AM 39.9 °F 37.8 °F 28.9 °F 65% 29.92 in - NE 3.5 mph - N/A   Unknown
8:53 AM 42.1 °F - 28.9 °F 60% 29.94 in - Calm Calm - N/A   Unknown
9:53 AM 48.0 °F - 28.9 °F 48% 29.92 in - West 6.9 mph - N/A   Unknown
10:53 AM 46.9 °F - 30.0 °F 52% 29.93 in - West 5.8 mph - N/A   Unknown
11:53 AM 50.0 °F - 30.0 °F 46% 29.89 in - NW 8.1 mph - N/A   Unknown
12:53 PM 50.0 °F - 30.0 °F 46% 29.90 in - WNW 11.5 mph - N/A   Unknown
1:53 PM 51.1 °F - 30.0 °F 44% 29.87 in - WNW 11.5 mph - N/A   Unknown
2:53 PM 50.0 °F - 28.9 °F 44% 29.89 in - West 9.2 mph - N/A   Unknown
3:53 PM 50.0 °F - 28.9 °F 44% 29.88 in - NW 9.2 mph - N/A   Unknown
4:53 PM 45.0 °F 42.6 °F 28.9 °F 53% 29.90 in - NW 4.6 mph - N/A   Unknown
5:53 PM 39.0 °F 35.7 °F 27.0 °F 62% 29.91 in - Variable 4.6 mph - N/A   Unknown
6:53 PM 33.1 °F - 25.0 °F 72% 29.94 in - Calm Calm - N/A   Unknown
7:53 PM 30.9 °F 25.2 °F 24.1 °F 76% 29.94 in - SSE 5.8 mph - N/A   Unknown
8:53 PM 30.9 °F 25.2 °F 24.1 °F 76% 29.92 in - SSE 5.8 mph - N/A   Unknown
9:53 PM 30.9 °F 27.5 °F 25.0 °F 79% 29.91 in - South 3.5 mph - N/A   Unknown
10:53 PM 34.0 °F 28.0 °F 27.0 °F 75% 29.89 in - South 6.9 mph - N/A   Unknown
11:53 PM 37.0 °F 33.3 °F 28.0 °F 70% 29.86 in - SSE 4.6 mph - N/A   Unknown